Location: *
(0.1100°N, 5.5000°E)
Time: 11:15:43
(UTC+00:00)

YAOGAN 1 - Pass Details

Date: 07 December 2022
Orbit: 616 x 618 km, 97.9° (Epoch: 07 February)

Event Time Altitude Azimuth Distance (km) Brightness Sun altitude
Rises 17:55:54 0° 132° (SE) 2,884 5.7 -6.1°
Reaches altitude 10° 17:59:22 10° 102° (ESE) 1,976 4.7 -6.9°
Maximum altitude 18:01:07 12° 78° (ENE) 1,826 4.3 -7.3°
Drops below altitude 10° 18:02:52 10° 54° (NE) 1,973 4.5 -7.7°
Enters shadow 18:04:03 - 41° (NE) 2,219 4.8 -8.0°
